Location: México DF
(19.4326°N, 99.1332°W)
Time: 21:09:44
(UTC+00:00)

ISS - Pass Details

Date: 08 September 2024
Orbit: 413 x 423 km, 51.6° (Epoch: 19 September)

Event Time Altitude Azimuth Distance (km) Brightness Sun altitude
Rises 01:23:57 0° 194° (SSW) 2,333 0.1 -9.8°
Reaches altitude 10° 01:26:19 10° 178° (S) 1,475 -1.1 -10.3°
Maximum altitude 01:28:58 22° 125° (SE) 952 -2.5 -10.9°
Enters shadow 01:30:17 18° 92° (E) 1,108 -2.3 -11.3°
